Simultaneous Nadir Overpasses (SNOs) Predictions

Prediction of SNOs between GOES-17 and METOP-C Satellite Orbit:

Table of predicted SNOs for the next 14.0 days since TLE Epoch: 8/29/2020
Index Date Time (GOES-17) GOES-17 Lat,Lon METOP-C Lat,Lon Distance(km) Time Diff (sec)
1 08/30/2020 06:42:41 0.03,-137.19 -0.19,-138.13 106.44 80
2 08/31/2020 06:24:42 0.03,-137.19 0.94,-133.14 462.25 80
3 09/01/2020 18:40:52 -0.03,-137.18 0.07,-137.69 58.05 80
4 09/04/2020 06:39:12 0.03,-137.16 -0.01,-137.29 14.56 80
5 09/06/2020 18:40:03 -0.03,-137.14 -0.12,-136.85 33.11 80
6 09/08/2020 06:56:23 0.03,-137.12 -0.90,-141.45 492.84 80
7 09/09/2020 06:38:23 0.03,-137.10 0.18,-136.45 74.83 80
8 09/10/2020 18:54:33 -0.03,-137.08 0.83,-141.01 447.48 80
9 09/11/2020 18:36:32 -0.03,-137.06 -0.25,-136.00 119.69 80
